Weather History for KIEN - April, 2013

Change the Weather History Date:

Friday, April 12, 2013

  Actual Average Record
Temperature  
Mean Temperature 29 °F 44 °F  
Max Temperature 40 °F 59 °F 84 °F (2003)
Min Temperature 18 °F 30 °F 10 °F (2004)
Degree Days  
Heating Degree Days 36 21  
Month to date heating degree days 319 264  
Since 1 July heating degree days 6321 6502  
Cooling Degree Days 0 0  
Month to date cooling degree days 0 0  
Year to date cooling degree days 0 0  
Moisture  
Dew Point 25 °F    
Average Humidity 76    
Maximum Humidity 92    
Minimum Humidity 59    
Precipitation  
Precipitation 0.00 in 0.07 in 0.08 in (2014)
Month to date precipitation 0.01 0.62  
Year to date precipitation 1.26 2.28  
Sea Level Pressure  
Sea Level Pressure 29.97 in    
Wind  
Wind Speed 4 mph (West)    
Max Wind Speed 12 mph    
Max Gust Speed 14 mph    
Visibility 10 miles    
Events      
T = Trace of Precipitation, MM = Missing Value Source: NWS Daily Summary

Daily Weather History Graph

Daily Weather History Graph

Search for Another Location

Airport or City:

Trip Planner

Search our weather history database for the weather conditions in past years. The results will help you decide how hot, cold, wet, or windy it might be!

Date:

Astronomy

Apr. 12, 2013 Rise Set
Actual Time 6:12 AM MDT 7:29 PM MDT
Civil Twilight 5:43 AM MDT 7:58 PM MDT
Nautical Twilight 5:08 AM MDT 8:34 PM MDT
Astronomical Twilight 4:31 AM MDT 9:11 PM MDT
Moon 7:20 AM MDT (4/12) 10:06 PM MDT (4/12)
Length of Visible Light 14h 15m
Length of Day
13h 16m
Waxing Crescent, 5% of the Moon is Illuminated
Apr 12
Waxing Crescent
Apr 18
First Quarter
Apr 25
Full
May 2
Last Quarter
May 9
New

Hourly Weather History & Observations

Time (MDT) Temp. Windchill Dew Point Humidity Pressure Visibility Wind Dir Wind Speed Gust Speed Precip Events Conditions
12:52 AM 27.0 °F 21.6 °F 21.9 °F 81% 29.95 in 10.0 mi West 4.6 mph - N/A   Overcast
1:30 AM 28.4 °F 23.3 °F 23.0 °F 80% 29.85 in 10.0 mi West 4.6 mph - N/A   Overcast
1:52 AM 28.0 °F 22.8 °F 23.0 °F 81% 29.95 in 10.0 mi West 4.6 mph - N/A   Overcast
2:26 AM 28.4 °F 23.3 °F 24.8 °F 86% 29.85 in 10.0 mi WNW 4.6 mph - N/A   Overcast
2:52 AM 28.9 °F 22.8 °F 24.1 °F 82% 29.94 in 10.0 mi WNW 5.8 mph - N/A   Overcast
3:52 AM 28.0 °F - 24.1 °F 85% 29.94 in 10.0 mi Calm Calm - N/A   Mostly Cloudy
4:16 AM 26.6 °F 21.2 °F 21.2 °F 80% 29.85 in 10.0 mi West 4.6 mph - N/A   Overcast
4:52 AM 27.0 °F - 23.0 °F 85% 29.94 in 10.0 mi Calm Calm - N/A   Overcast
5:52 AM 23.0 °F 15.8 °F 19.9 °F 88% 29.97 in 10.0 mi SW 5.8 mph - N/A   Mostly Cloudy
6:40 AM 19.4 °F 14.3 °F 17.6 °F 93% 29.87 in 10.0 mi SW 3.5 mph - N/A   Partly Cloudy
6:52 AM 18.0 °F 8.7 °F 16.0 °F 92% 29.99 in 10.0 mi SSW 6.9 mph - N/A   Partly Cloudy
7:52 AM 21.9 °F 13.4 °F 19.0 °F 89% 29.99 in 10.0 mi SW 6.9 mph - N/A   Clear
8:52 AM 28.0 °F 24.2 °F 23.0 °F 81% 29.98 in 10.0 mi WSW 3.5 mph - N/A   Clear
9:52 AM 30.9 °F 27.5 °F 25.0 °F 79% 29.99 in 10.0 mi SW 3.5 mph - N/A   Clear
10:52 AM 35.1 °F - 27.0 °F 72% 29.99 in 10.0 mi Calm Calm - N/A   Clear
11:52 AM 36.0 °F 32.1 °F 27.0 °F 70% 30.00 in 10.0 mi SSW 4.6 mph - N/A   Overcast
12:52 PM 39.0 °F 36.8 °F 27.0 °F 62% 29.99 in 10.0 mi NW 3.5 mph - N/A   Overcast
1:48 PM 39.2 °F - 26.6 °F 61% 29.94 in 10.0 mi Calm Calm - N/A   Overcast
1:52 PM 39.0 °F 34.8 °F 26.1 °F 60% 30.01 in 10.0 mi NE 5.8 mph - N/A   Overcast
2:32 PM 39.2 °F 35.0 °F 28.4 °F 65% 29.93 in 10.0 mi NNE 5.8 mph - N/A   Overcast
2:52 PM 37.9 °F 32.7 °F 28.9 °F 70% 30.00 in 10.0 mi NE 6.9 mph - N/A   Overcast
3:52 PM 39.0 °F 35.7 °F 30.0 °F 70% 30.00 in 10.0 mi ENE 4.6 mph - N/A   Partly Cloudy
4:52 PM 39.9 °F 36.7 °F 28.9 °F 65% 30.00 in 10.0 mi NE 4.6 mph - N/A   Partly Cloudy
5:52 PM 36.0 °F 31.1 °F 30.0 °F 79% 30.03 in 10.0 mi East 5.8 mph - N/A   Scattered Clouds
6:52 PM 35.1 °F 31.0 °F 30.0 °F 82% 30.05 in 10.0 mi ENE 4.6 mph - N/A   Overcast
7:52 PM 33.1 °F 30.0 °F 28.9 °F 85% 30.04 in 10.0 mi East 3.5 mph - N/A   Mostly Cloudy
8:45 PM 32.0 °F - 28.4 °F 87% 29.97 in 10.0 mi Calm Calm - N/A   Mostly Cloudy
8:52 PM 30.9 °F 27.5 °F 28.9 °F 92% 30.05 in 10.0 mi ESE 3.5 mph - N/A   Mostly Cloudy
9:03 PM 30.2 °F - 28.4 °F 93% 29.96 in 10.0 mi Calm Calm - N/A   Mostly Cloudy
9:52 PM 28.0 °F - 26.1 °F 92% 30.06 in 9.0 mi Calm Calm - N/A   Clear
10:52 PM 26.1 °F 19.4 °F 24.1 °F 92% 30.02 in 9.0 mi ENE 5.8 mph - N/A   Clear
11:52 PM 25.0 °F - 23.0 °F 92% 30.04 in 10.0 mi Calm Calm - N/A   Clear